Flag for France Weather past 2 weeks in Rouen, France

Now
72 °F

Passing clouds.


Feels Like: 76 °F
Forecast: 58 / 71 °F
Wind: 10 mph from Northwest

Location: Rouen Airport

Current Time: Jul 28, 2014 at 2:54:51 PM

Latest Report: Jul 28, 2014 at 2:30 PM


Visibility: N/A

Pressure: 29.92 "Hg

Humidity: 57%

Dew point: 55 °F

Location of RouenLocation

Historic Weather in Rouen — Graph

°F

Rouen temperature yesterday

Maximum temperature yesterday: 79 °F (at 1:00 PM)
Minimum temperature yesterday: 57 °F (at 4:30 AM)
Average temperature yesterday: 68 °F

Past Weeks' High & Low Weather Summary

 TemperatureHumidityPressure
High91 °F (Jul 18, 4:00 PM)100% (Jul 15, 2:00 AM)30.18 "Hg (Jul 15, 2:00 AM)
Low54 °F (Jul 15, 1:30 AM)39% (Jul 25, 4:30 PM)29.74 "Hg (Jul 19, 6:00 PM)
Average68 °F74%30.00 "Hg
* Reported Jul 13 1:00 PM — Jul 28 1:30 PM, Rouen, Weather by CustomWeather, © 2014

Note: Actual official high and low records may vary slightly from our data, if they occured in-between our weather recording intervals... More about our weather records

Advertising

Rouen weather history for previous 24 hours

 ConditionsComfort  
Time TempWeatherWind HumidityBarometerVisibility
1:30 PM
Jul 28
70 °FMild.12 mph60%29.92 "HgN/A
1:00 PM70 °FPartly sunny.10 mph60%29.92 "HgN/A
12:30 PM68 °FOvercast.9 mph64%29.92 "HgN/A
12:00 PM68 °FClear.9 mph64%29.92 "HgN/A
11:30 AM66 °FPartly sunny.10 mph68%29.92 "HgN/A
11:00 AM68 °FPassing clouds.10 mph69%29.92 "HgN/A
10:30 AM68 °FScattered clouds.12 mph64%29.92 "HgN/A
10:00 AM66 °FOvercast.12 mph73%29.92 "HgN/A
9:30 AM64 °FMild.12 mph78%29.92 "HgN/A
9:00 AM61 °FCool.9 mph88%29.92 "HgN/A
8:30 AM61 °FCool.9 mph88%29.92 "HgN/A
8:00 AM61 °FMostly cloudy.9 mph88%29.92 "HgN/A
7:30 AM59 °FScattered clouds.7 mph94%29.92 "HgN/A
7:00 AM59 °FPassing clouds.7 mph94%29.92 "HgN/A
6:30 AM59 °FClear.8 mph94%29.92 "HgN/A
6:00 AM61 °FFog.7 mph88%29.92 "Hg2 mi
5:30 AM61 °FClear.6 mph88%29.95 "HgN/A
4:30 AM61 °FClear.5 mph88%29.95 "HgN/A
4:00 AM61 °FClear.5 mph88%29.95 "HgN/A
3:30 AM61 °FClear.3 mph88%29.95 "HgN/A
3:00 AM61 °FClear.3 mph88%29.98 "HgN/A
2:30 AM61 °FClear.2 mph88%29.98 "HgN/A
2:00 AM63 °FClear.5 mph83%29.98 "HgN/A
1:30 AM63 °FClear.6 mph83%30.01 "HgN/A
1:00 AM63 °FClear.5 mph83%30.01 "HgN/A
12:30 AM63 °FOvercast.5 mph83%30.01 "HgN/A
12:00 AM63 °FMild.5 mph83%30.01 "HgN/A
11:30 PM
Jul 27
64 °FClear.6 mph78%30.01 "HgN/A
11:00 PM64 °FClear.8 mph78%30.01 "HgN/A
10:30 PM66 °FClear.8 mph78%30.04 "HgN/A
10:00 PM66 °FClear.9 mph78%30.01 "HgN/A
9:30 PM68 °FClear.7 mph73%30.01 "HgN/A
9:00 PM70 °FClear.7 mph69%30.01 "HgN/A
8:30 PM72 °FClear.8 mph65%30.01 "HgN/A
8:00 PM72 °FClear.9 mph65%30.01 "HgN/A
7:30 PM72 °FClear.12 mph69%30.01 "HgN/A
7:00 PM73 °FScattered clouds.12 mph65%30.01 "HgN/A
6:30 PM73 °FClear.12 mph65%30.01 "HgN/A
6:00 PM75 °FPassing clouds.9 mph61%30.01 "HgN/A
5:30 PM77 °FClear.12 mph57%30.01 "HgN/A
5:00 PM77 °FWarm.12 mph57%30.01 "HgN/A
4:30 PM77 °FClear.12 mph61%30.04 "HgN/A
4:00 PM77 °FWarm.13 mph57%30.04 "HgN/A
3:30 PM79 °FWarm.12 mph54%30.04 "HgN/A
3:00 PM77 °FWarm.10 mph61%30.04 "HgN/A
2:30 PM77 °FClear.8 mph57%30.04 "HgN/A
2:00 PM79 °FWarm.8 mph54%30.04 "HgN/A
Weather by CustomWeather, © 2014

See weather overviewHow to use our weather pages